EN

Hourly Weather Amayuca

Today, 19 January, Tuesday

Time Temperature Precipitation Wind Pressure Humidity
00:00 +19°C° 0 mm 1 mps 642 mmHg 62%
01:00 +19°C° 0 mm 1 mps 642 mmHg 63%
02:00 +18°C° 0 mm 1 mps 642 mmHg 64%
03:00 +18°C° 0 mm 1 mps 642 mmHg 65%
04:00 +18°C° 0 mm 1 mps 642 mmHg 66%
05:00 +16°C° 0 mm 1 mps 642 mmHg 67%
06:00 +17°C° 0 mm 0 mps 643 mmHg 63%
07:00 +18°C° 0 mm 0 mps 644 mmHg 58%
08:00 +20°C° 0 mm 0 mps 644 mmHg 54%
09:00 +22°C° 0 mm 0 mps 645 mmHg 49%
10:00 +26°C° 0 mm 1 mps 645 mmHg 45%
11:00 +27°C° 0 mm 2 mps 645 mmHg 40%
12:00 +28°C° 0 mm 1 mps 645 mmHg 39%
13:00 +28°C° 0 mm 1 mps 644 mmHg 37%
14:00 +29°C° 0 mm 1 mps 643 mmHg 36%
15:00 +27°C° 0 mm 1 mps 643 mmHg 40%
16:00 +26°C° 0 mm 1 mps 643 mmHg 44%
17:00 +24°C° 0 mm 1 mps 643 mmHg 48%
18:00 +23°C° 0 mm 1 mps 643 mmHg 50%
19:00 +23°C° 0 mm 1 mps 643 mmHg 52%
20:00 +22°C° 0 mm 1 mps 644 mmHg 54%
21:00 +21°C° 0 mm 1 mps 644 mmHg 55%
22:00 +21°C° 0 mm 1 mps 644 mmHg 56%
23:00 +20°C° 0 mm 1 mps 644 mmHg 56%

Tomorrow, 20 January, Wednesday

Time Temperature Precipitation Wind Pressure Humidity
00:00 +20°C° 0 mm 1 mps 644 mmHg 58%
01:00 +19°C° 0 mm 1 mps 644 mmHg 60%
02:00 +19°C° 0 mm 1 mps 643 mmHg 62%
03:00 +18°C° 0 mm 1 mps 643 mmHg 63%
04:00 +18°C° 0 mm 1 mps 644 mmHg 64%
05:00 +16°C° 0 mm 1 mps 644 mmHg 66%
06:00 +19°C° 0 mm 1 mps 644 mmHg 62%
07:00 +20°C° 0 mm 1 mps 645 mmHg 58%
08:00 +21°C° 0 mm 1 mps 646 mmHg 55%
09:00 +23°C° 0 mm 1 mps 646 mmHg 49%
10:00 +25°C° 0 mm 2 mps 646 mmHg 43%
11:00 +27°C° 0 mm 2 mps 646 mmHg 37%
12:00 +27°C° 0 mm 3 mps 646 mmHg 37%
13:00 +28°C° 0 mm 4 mps 645 mmHg 36%
14:00 +28°C° 0 mm 4 mps 644 mmHg 35%
15:00 +27°C° 0 mm 4 mps 644 mmHg 40%
16:00 +26°C° 0 mm 3 mps 644 mmHg 44%
17:00 +25°C° 0 mm 2 mps 644 mmHg 48%
18:00 +23°C° 0 mm 2 mps 644 mmHg 53%
19:00 +21°C° 0 mm 2 mps 644 mmHg 59%
20:00 +20°C° 0 mm 1 mps 644 mmHg 64%
21:00 +20°C° 0 mm 1 mps 644 mmHg 66%
22:00 +19°C° 0 mm 1 mps 644 mmHg 68%
23:00 +19°C° 0 mm 1 mps 644 mmHg 69%

Day after tomorrow, 21 January, Thursday

Time Temperature Precipitation Wind Pressure Humidity
00:00 +19°C° 0 mm 1 mps 644 mmHg 70%
01:00 +18°C° 0 mm 1 mps 644 mmHg 71%
02:00 +18°C° 0 mm 1 mps 644 mmHg 72%
03:00 +18°C° 0 mm 1 mps 644 mmHg 73%
04:00 +16°C° 0 mm 1 mps 644 mmHg 73%
05:00 +15°C° 0 mm 0 mps 644 mmHg 74%
06:00 +16°C° 0 mm 0 mps 644 mmHg 69%
07:00 +18°C° 0 mm 0 mps 645 mmHg 65%
08:00 +19°C° 0 mm 0 mps 646 mmHg 60%
09:00 +23°C° 0 mm 1 mps 646 mmHg 54%
10:00 +25°C° 0 mm 1 mps 646 mmHg 47%
11:00 +27°C° 0 mm 1 mps 646 mmHg 41%
12:00 +28°C° 0 mm 1 mps 645 mmHg 38%
13:00 +28°C° 0 mm 2 mps 644 mmHg 36%
14:00 +29°C° 0 mm 2 mps 644 mmHg 33%
15:00 +27°C° 0 mm 1 mps 643 mmHg 36%
16:00 +26°C° 0 mm 1 mps 643 mmHg 38%
17:00 +24°C° 0 mm 1 mps 642 mmHg 41%
18:00 +23°C° 0 mm 1 mps 642 mmHg 43%
19:00 +22°C° 0 mm 1 mps 643 mmHg 45%
20:00 +21°C° 0 mm 1 mps 643 mmHg 47%
21:00 +20°C° 0 mm 1 mps 643 mmHg 48%
22:00 +20°C° 0 mm 1 mps 643 mmHg 48%
23:00 +19°C° 0 mm 1 mps 643 mmHg 48%

22 January, Friday

Time Temperature Precipitation Wind Pressure Humidity
00:00 +19°C° 0 mm 1 mps 642 mmHg 50%
01:00 +19°C° 0 mm 1 mps 642 mmHg 51%
02:00 +18°C° 0 mm 1 mps 642 mmHg 52%
03:00 +18°C° 0 mm 1 mps 642 mmHg 53%
04:00 +18°C° 0 mm 1 mps 642 mmHg 53%
05:00 +18°C° 0 mm 1 mps 642 mmHg 54%
06:00 +19°C° 0 mm 1 mps 643 mmHg 50%
07:00 +19°C° 0 mm 0 mps 644 mmHg 47%
08:00 +20°C° 0 mm 0 mps 645 mmHg 43%
09:00 +23°C° 0 mm 0 mps 645 mmHg 39%
10:00 +27°C° 0 mm 1 mps 645 mmHg 35%
11:00 +29°C° 0 mm 1 mps 645 mmHg 31%
12:00 +29°C° 0 mm 2 mps 644 mmHg 31%
13:00 +30°C° 0 mm 2 mps 644 mmHg 30%
14:00 +30°C° 0 mm 2 mps 643 mmHg 29%
15:00 +29°C° 0 mm 1 mps 643 mmHg 32%
16:00 +27°C° 0 mm 1 mps 642 mmHg 35%
17:00 +26°C° 0 mm 1 mps 642 mmHg 38%
18:00 +24°C° 0 mm 1 mps 642 mmHg 41%
19:00 +23°C° 0 mm 1 mps 643 mmHg 43%
20:00 +22°C° 0 mm 1 mps 643 mmHg 45%
21:00 +22°C° 0 mm 1 mps 643 mmHg 46%
22:00 +21°C° 0 mm 1 mps 643 mmHg 47%
23:00 +21°C° 0 mm 1 mps 642 mmHg 47%

23 January, Saturday

Time Temperature Precipitation Wind Pressure Humidity
00:00 +20°C° 0 mm 1 mps 642 mmHg 48%
01:00 +20°C° 0 mm 1 mps 642 mmHg 49%
02:00 +19°C° 0 mm 1 mps 642 mmHg 50%
03:00 +19°C° 0 mm 1 mps 642 mmHg 51%
04:00 +19°C° 0 mm 1 mps 642 mmHg 52%
05:00 +18°C° 0 mm 1 mps 642 mmHg 53%
06:00 +20°C° 0 mm 1 mps 643 mmHg 50%
07:00 +19°C° 0 mm 0 mps 643 mmHg 47%
08:00 +21°C° 0 mm 0 mps 644 mmHg 44%
09:00 +23°C° 0 mm 0 mps 644 mmHg 39%
10:00 +27°C° 0 mm 1 mps 645 mmHg 35%
11:00 +29°C° 0 mm 1 mps 645 mmHg 30%
12:00 +29°C° 0 mm 1 mps 644 mmHg 29%
13:00 +30°C° 0 mm 1 mps 644 mmHg 28%
14:00 +30°C° 0 mm 1 mps 643 mmHg 27%
15:00 +29°C° 0 mm 1 mps 643 mmHg 30%
16:00 +27°C° 0 mm 1 mps 642 mmHg 33%
17:00 +26°C° 0 mm 1 mps 642 mmHg 36%
18:00 +24°C° 0 mm 1 mps 642 mmHg 39%
19:00 +23°C° 0 mm 1 mps 642 mmHg 42%
20:00 +21°C° 0 mm 2 mps 643 mmHg 45%
21:00 +21°C° 0 mm 1 mps 643 mmHg 44%
22:00 +21°C° 0 mm 1 mps 642 mmHg 44%
23:00 +20°C° 0 mm 1 mps 642 mmHg 43%

24 January, Sunday

Time Temperature Precipitation Wind Pressure Humidity
00:00 +20°C° 0 mm 1 mps 642 mmHg 45%
01:00 +19°C° 0 mm 1 mps 642 mmHg 46%
02:00 +19°C° 0 mm 1 mps 641 mmHg 47%
03:00 +19°C° 0 mm 1 mps 641 mmHg 49%
04:00 +18°C° 0 mm 1 mps 641 mmHg 50%
05:00 +18°C° 0 mm 1 mps 641 mmHg 52%
06:00 +17°C° 0 mm 0 mps 642 mmHg 48%
07:00 +19°C° 0 mm 0 mps 643 mmHg 45%
08:00 +21°C° 0 mm 0 mps 644 mmHg 41%
09:00 +23°C° 0 mm 0 mps 644 mmHg 38%
10:00 +27°C° 0 mm 1 mps 644 mmHg 35%
11:00 +28°C° 0 mm 2 mps 644 mmHg 32%
12:00 +29°C° 0 mm 2 mps 644 mmHg 30%
13:00 +29°C° 0 mm 2 mps 643 mmHg 28%
14:00 +30°C° 0 mm 2 mps 642 mmHg 27%
15:00 +28°C° 0 mm 2 mps 642 mmHg 30%
16:00 +27°C° 0 mm 1 mps 642 mmHg 33%
17:00 +25°C° 0 mm 1 mps 641 mmHg 36%
18:00 +24°C° 0 mm 1 mps 641 mmHg 38%
19:00 +23°C° 0 mm 1 mps 642 mmHg 40%
20:00 +21°C° 0 mm 1 mps 642 mmHg 42%
21:00 +21°C° 0 mm 1 mps 642 mmHg 44%
22:00 +20°C° 0 mm 1 mps 642 mmHg 46%
23:00 +19°C° 0 mm 1 mps 641 mmHg 48%
Show more